Regional Weather Roundup
Issued by NWS

Home | Current Version | Previous Version | Text Only | Print | Product List | Glossary On
Versions: 1 2 3 4 5 6 7 8 9 10 11 12 13 14 15 16 17 18 19 20 21 22 23 24 25 26 27 28 29 30 31 32 33 34 35 36 37 38 39 40 41 42 43 44 45 46 47 48 49 50
000
ASUS44 KJAN 231120
RWRMS

MISSISSIPPI HOURLY WEATHER ROUNDUP
NATIONAL WEATHER SERVICE JACKSON MS
600 AM CDT SAT JUL 23 2016

NOTE: "FAIR: INDICATES FEW OR NO CLOUDS BELOW 12,000 FEET WITH NO
SIGNIFICANT WEATHER AND/OR OBSTRUCTIONS TO VISIBILITY.

MSZ001>002-007>008-010>013-018>021-025>028-034>036-231200-
NORTHWEST MISSISSIPPI

CITY           SKY/WX    TMP DP  RH WIND       PRES   REMARKS
CLEVELAND      FAIR      76  76 100 S3        29.98S
GREENWOOD      CLOUDY    75  71  87 SW5       29.99S
GREENVILLE     PTCLDY    76  73  91 CALM      29.98R
OXFORD         FAIR      75  72  88 NE5       30.02R
WINONA         FAIR      73  72  98 CALM      30.00S
$$

MSZ003>006-009-014>017-022>024-029>033-037>039-231200-
NORTHEAST MISSISSIPPI

CITY           SKY/WX    TMP DP  RH WIND       PRES   REMARKS
ABERDEEN       PTSUNNY   73  55  53 CALM      30.01F HAZE
COLUMBUS AFB   CLEAR     73  73 100 SW1       29.99S
GOLDN TRIANGLE CLEAR     72  66  83 CALM      30.00R FOG
TUPELO         MOCLDY    75  71  87 CALM      30.01R
$$

MSZ040-058-231200-
CENTRAL MISSISSIPPI

CITY           SKY/WX    TMP DP  RH WIND       PRES   REMARKS
JACKSON INTL   MOCLDY    73  71  93 S3        30.01R FOG
JACKSON HAWKNS CLOUDY    73  72  96 CALM      30.01R
MADISON        FAIR      72  70  94 CALM      30.00S
MERIDIAN KEY   FOG       73  71  93 CALM      30.02S VSB 3/4
MERIDIAN NAS   PTCLDY    74  70  87 CALM      30.01S
VICKSBURG VKS  SUNNY     73  72  94 CALM      29.99S
$$

MSZ059>079-231200-
SOUTH MISSISSIPPI

CITY           SKY/WX    TMP DP  RH WIND       PRES   REMARKS
BROOKHAVEN     FOG      N/A N/A N/A CALM      30.02S VSB 1/4
COLUMBIA       FOG       70  68  94 CALM      30.04S VSB<1/4
HATTIESBURG    PTCLDY    71  70  96 CALM      30.02R
MCCOMB         CLEAR     72  70  93 CALM      30.01S
NATCHEZ        CLEAR     73  70  88 CALM      30.00R
PINE BELT      PTCLDY    70  66  88 CALM      30.03R
$$

MSZ080>082-231200-
COASTAL MISSISSIPPI

CITY           SKY/WX    TMP DP  RH WIND       PRES   REMARKS
BILOXI         CLEAR     74  73  96 NE5       29.99S
PASCAGOULA     CLEAR     73  73 100 CALM      30.00R
GULFPORT       PTCLDY    74  71  91 N3        29.99S
$$

LAZ007>009-015>016-023>026-231200-
NORTHEAST LOUISIANA

CITY           SKY/WX    TMP DP  RH WIND       PRES   REMARKS
BASTROP          N/A     73  72  98 CALM      29.99R FOG
TALLULAH/VBURG PTCLDY    74  72  93 S5        29.99R
VIDALIA        FAIR      74  73  96 CALM      30.02R
$$




USA.gov is the U.S. government's official web portal to all federal, state and local government web resources and services.